sat.trackr.live / text

‹ back to catalog

STARLINK-3660

NORAD 51977 · 2022-025X

PAYLOAD ACTIVE UNKNOWN

§ Identity

Operator
Country
US
Launch date
2022-03-09
Launch site
AFETR
Launch vehicle
Mass (kg)
RCS (m²)

Purposes: comms

External: N2YO · Heavens-Above · Gunter

§ Orbital elements

Epoch: 2026-09-20T03:08:05.940384Z

Period
94.01 min
Inclination
53.1590°
Eccentricity
0.0001619
Mean motion
15.31720049 rev/d
Perigee alt
469.6 km
Apogee alt
471.8 km
Semi-major
6,848.8 km
B*
7.5441e-4
RAAN
212.6114°
Arg perigee
99.6153°
Mean anomaly
260.5032°
Rev number
25,087

§ Raw data

STARLINK-36601 51977U 22025X   26263.13062431  .00023132  00000+0  75441-3 0  99932 51977  53.1590 212.6114 0001619  99.6153 260.5032 15.31720049250873

JSON: /api/v1/satellites/51977 · /tle

For live sub-satellite position, see the globe view (requires WebGL).

§ Visibility from observer

Set your observer location to see the next 7 days of passes ≥ 10°. The values pass through the URL so the page stays shareable.

No JS? Fill the form by hand. The geolocation button needs JavaScript.